Location: Boitzum
(52.1496°N, 9.6943°E)
Time: 00:39:33
(UTC+00:00)

Resurs 01 Rocket - Pass Details

Date: 13 January 2026
Orbit: 628 x 635 km, 97.7° (Epoch: 18 February)

Event Time Altitude Azimuth Distance (km) Brightness Sun altitude
Rises 06:30:50 0° 22° (NNE) 2,934 5.0 -8.0°
Reaches altitude 10° 06:33:20 10° 35° (NE) 2,023 4.3 -7.6°
Maximum altitude 06:37:06 27° 93° (E) 1,219 4.0 -7.1°
Drops below altitude 10° 06:40:50 10° 152° (SSE) 2,012 5.1 -6.6°
Sets 06:43:18 0° 165° (SSE) 2,916 5.7 -6.3°
